Date String (YYYY-MM-DD hh:mm:ss) UTC,Instrument flags,Ambient pressure (hPa),Sample flow (lpm),Bypass flow (lpm),Sample temperature (°C),Ambient temperature (°C),ASC tube jacket temperature (°C),LED temperature (°C),Box temperature (°C),Sample RH (%),Span deviation,Mass concentration (μg/m³),Mass concentration (μg/m³),Mass concentration (μg/m³)
DateTimeUTC,F1_M11,P_M11,Q1_M11,Q2_M11,T1_M11,T2_M11,T3_M11,T4_M11,T5_M11,U1_M11,ZSPAN_M11,X0_M11,X2_M11,X1_M11
2022-07-06 22:00:00,,0827.7,5.00,0.00,29.6,27.9,00.0,38.1,31.5,32.2,0000.0,0006.03,0003.30,0002.56
2022-07-06 22:01:00,,0827.7,5.00,0.00,29.6,27.2,00.0,38.1,31.3,32.5,0000.0,0005.83,0003.27,0002.53
2022-07-06 22:02:00,,0827.7,4.99,0.00,29.6,26.9,00.0,38.1,31.3,32.8,0000.0,0006.01,0003.27,0002.52
2022-07-06 22:03:00,,0827.7,5.01,0.00,29.5,26.9,00.0,38.1,31.1,32.7,0000.0,0006.30,0003.24,0002.51
2022-07-06 22:04:00,,0827.7,5.00,0.00,29.4,27.0,00.0,38.1,31.1,33.3,0000.0,0006.16,0003.24,0002.49
2022-07-06 22:05:00,,0827.7,5.00,0.00,29.4,27.2,00.0,38.1,31.1,33.2,0000.0,0006.05,0003.24,0002.47
2022-07-06 22:06:00,,0827.7,5.00,0.00,29.4,27.4,00.0,38.1,31.2,32.6,0000.0,0006.25,0003.24,0002.44
2022-07-06 22:07:00,,0827.7,5.00,0.00,29.4,27.6,00.0,38.1,31.2,32.2,0000.0,0006.10,0003.20,0002.40
2022-07-06 22:08:00,,0827.7,5.00,0.00,29.4,27.8,00.0,38.1,31.2,31.9,0000.0,0005.66,0003.14,0002.39
2022-07-06 22:09:00,,0827.7,5.00,0.00,29.4,28.0,00.0,38.1,31.3,31.8,0000.0,0005.52,0003.12,0002.37
2022-07-06 22:10:00,,0827.7,5.00,0.00,29.4,28.1,00.0,38.1,31.4,31.7,0000.0,0005.39,0003.08,0002.35
2022-07-06 22:11:00,,0827.7,4.99,0.00,29.5,28.2,00.0,38.2,31.4,31.1,0000.0,0005.48,0003.09,0002.33
2022-07-06 22:12:00,,0827.8,5.01,0.00,29.5,28.4,00.0,38.2,31.4,30.8,0000.0,0006.07,0003.06,0002.31
2022-07-06 22:13:00,,0827.8,5.01,0.00,29.5,28.4,00.0,38.2,31.5,30.7,0000.0,0007.45,0002.99,0002.29
2022-07-06 22:14:00,,0827.8,5.01,0.00,29.6,27.8,00.0,38.1,31.4,31.0,0000.0,0007.08,0002.95,0002.26
2022-07-06 22:15:00,,0827.8,5.01,0.00,29.5,27.1,00.0,38.1,31.3,31.3,0000.0,0006.91,0002.88,0002.23
2022-07-06 22:16:00,,0827.8,5.00,0.00,29.5,26.8,00.0,38.1,31.2,31.4,0000.0,0006.81,0002.85,0002.22
2022-07-06 22:17:00,,0827.8,4.99,0.00,29.4,26.8,00.0,38.1,31.0,31.4,0000.0,0006.64,0002.82,0002.22
2022-07-06 22:18:00,,0827.9,5.00,0.00,29.3,27.0,00.0,38.1,31.0,32.0,0000.0,0006.59,0002.81,0002.24
2022-07-06 22:19:00,,0827.9,5.00,0.00,29.3,27.2,00.0,38.1,31.1,31.6,0000.0,0006.74,0002.85,0002.25
2022-07-06 22:20:00,,0827.9,5.00,0.00,29.3,27.4,00.0,38.1,31.1,31.7,0000.0,0006.81,0002.87,0002.26
2022-07-06 22:21:00,,0827.9,5.00,0.00,29.3,27.6,00.0,38.1,31.2,31.6,0000.0,0006.86,0002.89,0002.26
2022-07-06 22:22:00,,0828.0,5.02,0.00,29.3,27.8,00.0,38.1,31.2,31.6,0000.0,0007.02,0002.97,0002.28
2022-07-06 22:23:00,,0828.0,5.00,0.00,29.3,27.9,00.0,38.1,31.3,31.2,0000.0,0007.26,0002.97,0002.28
2022-07-06 22:24:00,,0828.0,4.99,0.00,29.4,28.1,00.0,38.1,31.3,31.3,0000.0,0005.29,0002.94,0002.27
2022-07-06 22:25:00,,0827.9,5.00,0.00,29.4,28.2,00.0,38.1,31.4,31.9,0000.0,0005.29,0002.93,0002.26
2022-07-06 22:26:00,,0827.9,5.00,0.00,29.4,28.3,00.0,38.1,31.4,32.3,0000.0,0005.32,0002.96,0002.26
2022-07-06 22:27:00,,0827.9,5.00,0.00,29.5,28.4,00.0,38.2,31.5,32.5,0000.0,0005.41,0003.02,0002.27
2022-07-06 22:28:00,,0827.9,4.99,0.00,29.5,28.1,00.0,38.1,31.5,33.2,0000.0,0005.68,0003.04,0002.29
2022-07-06 22:29:00,,0827.8,4.99,0.00,29.5,27.3,00.0,38.1,31.4,35.2,0000.0,0006.67,0003.11,0002.32
2022-07-06 22:30:00,,0827.8,5.00,0.00,29.6,26.9,00.0,38.1,31.4,36.0,0000.0,0007.12,0003.14,0002.36
2022-07-06 22:31:00,,0827.9,4.99,0.00,29.9,26.9,00.0,38.1,31.4,36.2,0000.0,0007.82,0003.21,0002.42
2022-07-06 22:32:00,,0827.9,5.01,0.00,30.2,27.0,00.0,38.1,31.5,36.1,0000.0,0007.98,0003.28,0002.48
2022-07-06 22:33:00,,0827.9,5.00,0.00,30.6,27.1,00.0,38.1,31.6,34.8,0000.0,0008.16,0003.33,0002.55
2022-07-06 22:34:00,,0827.9,5.00,0.00,30.8,27.3,00.0,38.2,31.7,33.9,0000.0,0008.05,0003.38,0002.60
2022-07-06 22:35:00,,0828.0,5.00,0.00,31.0,27.5,00.0,38.3,31.7,33.4,0000.0,0008.13,0003.45,0002.65
2022-07-06 22:36:00,,0828.0,5.00,0.00,31.1,27.7,00.0,38.4,31.6,33.1,0000.0,0008.26,0003.54,0002.72
2022-07-06 22:37:00,,0828.0,4.99,0.00,31.1,27.9,00.0,38.5,31.7,32.7,0000.0,0008.42,0003.62,0002.80
2022-07-06 22:38:00,,0828.0,4.99,0.00,31.1,28.1,00.0,38.6,31.7,33.0,0000.0,0008.58,0003.64,0002.85
2022-07-06 22:39:00,,0828.0,5.00,0.00,31.1,28.2,00.0,38.7,31.8,32.7,0000.0,0008.68,0003.67,0002.90
2022-07-06 22:40:00,,0827.9,5.00,0.00,31.1,28.3,00.0,38.8,31.8,32.4,0000.0,0008.47,0003.73,0002.92
2022-07-06 22:41:00,,0828.0,5.00,0.00,31.1,28.4,00.0,38.9,31.9,32.6,0000.0,0008.31,0003.75,0002.91
2022-07-06 22:42:00,,0827.9,5.00,0.00,31.1,28.5,00.0,39.0,31.9,32.5,0000.0,0007.82,0003.74,0002.88
2022-07-06 22:43:00,,0827.9,4.99,0.00,31.1,28.5,00.0,39.0,32.0,32.6,0000.0,0007.86,0003.72,0002.88
2022-07-06 22:44:00,,0827.9,5.00,0.00,31.1,27.8,00.0,39.0,31.9,32.4,0000.0,0007.75,0003.69,0002.86
2022-07-06 22:45:00,,0827.9,5.00,0.00,31.0,27.2,00.0,39.0,31.8,32.4,0000.0,0008.50,0003.68,0002.84
2022-07-06 22:46:00,,0828.0,5.00,0.00,30.9,27.0,00.0,39.0,31.6,32.0,0000.0,0008.44,0003.64,0002.81
2022-07-06 22:47:00,,0828.0,5.00,0.00,30.8,27.0,00.0,39.0,31.5,32.0,0000.0,0008.38,0003.61,0002.78
2022-07-06 22:48:00,,0828.0,5.01,0.00,30.7,27.2,00.0,39.0,31.5,32.1,0000.0,0008.36,0003.60,0002.75
2022-07-06 22:49:00,,0828.0,5.00,0.00,30.6,27.3,00.0,39.0,31.5,32.1,0000.0,0008.22,0003.58,0002.73
2022-07-06 22:50:00,,0828.0,5.00,0.00,30.6,27.5,00.0,39.0,31.5,32.2,0000.0,0008.19,0003.56,0002.70
2022-07-06 22:51:00,,0828.1,5.00,0.00,30.5,27.7,00.0,39.0,31.6,32.4,0000.0,0007.96,0003.53,0002.67
2022-07-06 22:52:00,,0828.1,4.99,0.00,30.5,27.9,00.0,39.0,31.6,32.5,0000.0,0007.81,0003.48,0002.66
2022-07-06 22:53:00,,0828.1,4.99,0.00,30.5,28.0,00.0,39.0,31.7,32.6,0000.0,0007.84,0003.50,0002.66
2022-07-06 22:54:00,,0828.2,4.97,0.00,30.5,28.2,00.0,39.0,31.7,32.8,0000.0,0007.85,0003.53,0002.65
2022-07-06 22:55:00,,0828.2,5.01,0.00,30.5,28.3,00.0,39.0,31.7,33.2,0000.0,0007.87,0003.54,0002.65
2022-07-06 22:56:00,,0828.2,5.00,0.00,30.5,28.4,00.0,39.0,31.7,33.2,0000.0,0006.92,0003.55,0002.66
2022-07-06 22:57:00,,0828.2,5.00,0.00,30.5,28.5,00.0,39.0,31.8,33.2,0000.0,0006.70,0003.54,0002.67
2022-07-06 22:58:00,,0828.3,5.00,0.00,30.5,28.6,00.0,39.0,31.9,33.3,0000.0,0006.85,0003.57,0002.69
2022-07-06 22:59:00,,0828.3,5.00,0.00,30.5,28.6,00.0,39.0,31.9,32.6,0000.0,0007.03,0003.58,0002.70
